Hourly Weather Kisvarda

Today, 30 July, Friday

Time Temperature Precipitation Wind Pressure Humidity
00:00 +21°C° 0 mm 2 mps 750 mmHg 78%
01:00 +20°C° 0 mm 2 mps 750 mmHg 81%
02:00 +20°C° 0 mm 2 mps 750 mmHg 83%
03:00 +20°C° 0 mm 2 mps 750 mmHg 84%
04:00 +20°C° 0 mm 1 mps 750 mmHg 85%
05:00 +22°C° 0 mm 1 mps 750 mmHg 78%
06:00 +24°C° 0 mm 1 mps 751 mmHg 70%
07:00 +26°C° 0 mm 1 mps 751 mmHg 62%
08:00 +28°C° 0 mm 1 mps 751 mmHg 55%
09:00 +30°C° 0 mm 1 mps 750 mmHg 48%
10:00 +31°C° 0 mm 1 mps 750 mmHg 41%
11:00 +32°C° 0 mm 1 mps 750 mmHg 37%
12:00 +33°C° 0 mm 1 mps 749 mmHg 33%
13:00 +34°C° 0 mm 1 mps 749 mmHg 29%
14:00 +36°C° 0 mm 2 mps 749 mmHg 28%
15:00 +36°C° 0 mm 2 mps 748 mmHg 28%
16:00 +36°C° 0 mm 2 mps 748 mmHg 27%
17:00 +34°C° 0 mm 2 mps 748 mmHg 31%
18:00 +31°C° 0 mm 2 mps 748 mmHg 35%
19:00 +29°C° 0 mm 2 mps 748 mmHg 40%
20:00 +28°C° 0 mm 2 mps 748 mmHg 43%
21:00 +27°C° 0 mm 2 mps 748 mmHg 46%
22:00 +25°C° 0 mm 3 mps 748 mmHg 49%
23:00 +25°C° 0 mm 2 mps 748 mmHg 51%

Tomorrow, 31 July, Saturday

Time Temperature Precipitation Wind Pressure Humidity
00:00 +24°C° 0 mm 2 mps 748 mmHg 53%
01:00 +23°C° 0 mm 2 mps 748 mmHg 55%
02:00 +23°C° 0 mm 2 mps 748 mmHg 58%
03:00 +21°C° 0 mm 2 mps 748 mmHg 60%
04:00 +21°C° 0 mm 2 mps 748 mmHg 63%
05:00 +24°C° 0 mm 2 mps 748 mmHg 58%
06:00 +25°C° 0 mm 2 mps 748 mmHg 53%
07:00 +27°C° 0 mm 3 mps 748 mmHg 49%
08:00 +29°C° 0 mm 3 mps 748 mmHg 42%
09:00 +33°C° 0 mm 3 mps 747 mmHg 36%
10:00 +35°C° 0 mm 4 mps 747 mmHg 30%
11:00 +36°C° 0 mm 4 mps 747 mmHg 28%
12:00 +37°C° 0 mm 4 mps 746 mmHg 26%
13:00 +38°C° 0 mm 4 mps 746 mmHg 24%
14:00 +37°C° 0.1 mm 5 mps 746 mmHg 27%
15:00 +36°C° 0.1 mm 5 mps 745 mmHg 31%
16:00 +35°C° 0.1 mm 5 mps 745 mmHg 34%
17:00 +33°C° 0.3 mm 5 mps 745 mmHg 44%
18:00 +29°C° 0.3 mm 4 mps 746 mmHg 54%
19:00 +26°C° 0.3 mm 4 mps 746 mmHg 64%
20:00 +25°C° 0.1 mm 4 mps 747 mmHg 71%
21:00 +22°C° 0.1 mm 3 mps 748 mmHg 77%
22:00 +21°C° 0.1 mm 3 mps 748 mmHg 83%
23:00 +20°C° 0 mm 3 mps 748 mmHg 85%

Day after tomorrow, 1 August, Sunday

Time Temperature Precipitation Wind Pressure Humidity
00:00 +20°C° 0 mm 2 mps 748 mmHg 87%
01:00 +19°C° 0 mm 2 mps 748 mmHg 89%
02:00 +19°C° 0 mm 2 mps 748 mmHg 89%
03:00 +19°C° 0 mm 2 mps 748 mmHg 90%
04:00 +19°C° 0 mm 2 mps 748 mmHg 90%
05:00 +20°C° 0 mm 2 mps 748 mmHg 83%
06:00 +23°C° 0 mm 2 mps 748 mmHg 76%
07:00 +25°C° 0 mm 2 mps 748 mmHg 70%
08:00 +27°C° 0 mm 2 mps 748 mmHg 61%
09:00 +29°C° 0 mm 3 mps 748 mmHg 52%
10:00 +33°C° 0 mm 3 mps 747 mmHg 43%
11:00 +35°C° 0 mm 4 mps 747 mmHg 38%
12:00 +37°C° 0 mm 4 mps 746 mmHg 33%
13:00 +39°C° 0 mm 5 mps 746 mmHg 28%
14:00 +35°C° 0.5 mm 4 mps 745 mmHg 38%
15:00 +30°C° 0.5 mm 4 mps 745 mmHg 49%
16:00 +27°C° 0.5 mm 4 mps 745 mmHg 60%
17:00 +26°C° 0.5 mm 4 mps 745 mmHg 66%
18:00 +23°C° 0.5 mm 4 mps 745 mmHg 72%
19:00 +22°C° 0.5 mm 4 mps 746 mmHg 78%
20:00 +22°C° 0 mm 4 mps 746 mmHg 78%
21:00 +22°C° 0 mm 3 mps 745 mmHg 78%
22:00 +21°C° 0 mm 3 mps 745 mmHg 78%
23:00 +21°C° 0.1 mm 2 mps 745 mmHg 79%

2 August, Monday

Time Temperature Precipitation Wind Pressure Humidity
00:00 +20°C° 0.1 mm 2 mps 746 mmHg 81%
01:00 +21°C° 0.1 mm 1 mps 746 mmHg 82%
02:00 +21°C° 0 mm 1 mps 746 mmHg 85%
03:00 +19°C° 0 mm 2 mps 746 mmHg 88%
04:00 +18°C° 0 mm 2 mps 746 mmHg 91%
05:00 +19°C° 0 mm 3 mps 747 mmHg 87%
06:00 +20°C° 0 mm 3 mps 747 mmHg 83%
07:00 +21°C° 0 mm 4 mps 748 mmHg 78%
08:00 +23°C° 0 mm 4 mps 748 mmHg 69%
09:00 +25°C° 0 mm 4 mps 749 mmHg 61%
10:00 +26°C° 0 mm 5 mps 749 mmHg 52%
11:00 +27°C° 0 mm 4 mps 749 mmHg 49%
12:00 +27°C° 0 mm 4 mps 749 mmHg 45%
13:00 +28°C° 0 mm 4 mps 749 mmHg 42%
14:00 +28°C° 0 mm 4 mps 749 mmHg 41%
15:00 +28°C° 0 mm 3 mps 749 mmHg 41%
16:00 +29°C° 0 mm 3 mps 749 mmHg 40%
17:00 +27°C° 0 mm 3 mps 749 mmHg 44%
18:00 +26°C° 0 mm 2 mps 749 mmHg 48%
19:00 +24°C° 0 mm 2 mps 749 mmHg 52%
20:00 +23°C° 0 mm 2 mps 749 mmHg 55%
21:00 +21°C° 0 mm 2 mps 750 mmHg 59%
22:00 +20°C° 0 mm 2 mps 750 mmHg 62%
23:00 +19°C° 0.1 mm 2 mps 751 mmHg 65%

3 August, Tuesday

Time Temperature Precipitation Wind Pressure Humidity
00:00 +19°C° 0.1 mm 2 mps 751 mmHg 69%
01:00 +18°C° 0.1 mm 2 mps 751 mmHg 72%
02:00 +18°C° 0 mm 2 mps 751 mmHg 73%
03:00 +19°C° 0 mm 1 mps 751 mmHg 74%
04:00 +18°C° 0 mm 1 mps 752 mmHg 75%
05:00 +20°C° 0 mm 1 mps 752 mmHg 69%
06:00 +22°C° 0 mm 1 mps 752 mmHg 63%
07:00 +23°C° 0 mm 1 mps 753 mmHg 57%
08:00 +25°C° 0 mm 1 mps 753 mmHg 50%
09:00 +27°C° 0 mm 1 mps 753 mmHg 43%
10:00 +28°C° 0 mm 0 mps 753 mmHg 36%
11:00 +30°C° 0 mm 1 mps 752 mmHg 34%
12:00 +31°C° 0 mm 1 mps 752 mmHg 31%
13:00 +32°C° 0 mm 2 mps 752 mmHg 28%
14:00 +32°C° 0 mm 2 mps 751 mmHg 27%
15:00 +32°C° 0 mm 2 mps 751 mmHg 26%
16:00 +32°C° 0 mm 2 mps 751 mmHg 25%
17:00 +31°C° 0 mm 2 mps 751 mmHg 29%
18:00 +29°C° 0 mm 2 mps 750 mmHg 33%
19:00 +27°C° 0 mm 2 mps 750 mmHg 37%
20:00 +26°C° 0 mm 2 mps 750 mmHg 42%
21:00 +24°C° 0 mm 2 mps 751 mmHg 46%
22:00 +22°C° 0 mm 3 mps 751 mmHg 51%
23:00 +22°C° 0 mm 3 mps 751 mmHg 54%

4 August, Wednesday

Time Temperature Precipitation Wind Pressure Humidity
00:00 +21°C° 0 mm 3 mps 750 mmHg 57%
01:00 +20°C° 0 mm 3 mps 750 mmHg 60%
02:00 +20°C° 0 mm 3 mps 750 mmHg 62%
03:00 +20°C° 0 mm 3 mps 750 mmHg 63%
04:00 +19°C° 0 mm 2 mps 750 mmHg 65%
05:00 +20°C° 0 mm 3 mps 750 mmHg 61%
06:00 +22°C° 0 mm 3 mps 750 mmHg 58%
07:00 +24°C° 0 mm 3 mps 750 mmHg 54%
08:00 +26°C° 0 mm 3 mps 750 mmHg 50%
09:00 +27°C° 0 mm 3 mps 750 mmHg 46%
10:00 +28°C° 0 mm 3 mps 750 mmHg 42%
11:00 +28°C° 0 mm 3 mps 750 mmHg 44%
12:00 +28°C° 0 mm 2 mps 750 mmHg 46%
13:00 +28°C° 0 mm 2 mps 749 mmHg 48%
14:00 +27°C° 0.1 mm 2 mps 749 mmHg 50%
15:00 +27°C° 0.1 mm 2 mps 749 mmHg 53%
16:00 +26°C° 0.1 mm 3 mps 749 mmHg 56%
17:00 +25°C° 0 mm 2 mps 749 mmHg 60%
18:00 +24°C° 0 mm 2 mps 749 mmHg 64%
19:00 +23°C° 0 mm 1 mps 749 mmHg 68%
20:00 +22°C° 0 mm 1 mps 749 mmHg 72%
21:00 +21°C° 0 mm 1 mps 749 mmHg 77%
22:00 +19°C° 0 mm 2 mps 749 mmHg 81%
23:00 +19°C° 0 mm 2 mps 749 mmHg 83%
Show more